Location: Possagno
(45.8500°N, 11.8667°E)
Time: 01:05:07
(UTC+00:00)

Daily predictions for brighter satellites

Satellite Brightness Start Highest point End
(mag) Time Altitude Azimuth Time Altitude Azimuth Time Altitude Azimuth
STARLINK-1268 3.5 00:04:28 48° ENE 00:04:28 48° ENE 00:06:51 10° ENE
STARLINK-1301 3.2 00:03:56 71° S 00:04:06 73° SE 00:07:57 10° ENE
STARLINK-1303 3.2 00:05:53 72° SSE 00:05:58 72° SE 00:09:43 10° ENE
Cosmos 1570 Rocket 4.0 00:04:53 41° SSW 00:06:46 82° WNW 00:12:05 10° NNE
STARLINK-66 3.1 00:07:08 67° NW 00:07:11 67° NNW 00:10:23 10° NE
Cosmos 1400 Rocket 3.6 00:03:35 10° N 00:07:36 47° ENE 00:09:10 31° SE
Cosmos 1709 Rocket 3.9 00:05:05 37° SSW 00:07:42 81° W 00:13:55 10° N
Cosmos 1763 Rocket 4.0 00:05:57 32° WSW 00:08:00 50° WNW 00:12:56 10° NNE
STARLINK-1316 3.2 00:09:23 60° ENE 00:09:23 60° ENE 00:12:02 10° ENE
Cosmos 2227 Rocket 3.2 00:04:23 10° NW 00:09:12 29° WSW 00:10:10 27° WSW
STARLINK-1312 3.2 00:09:13 73° S 00:09:26 77° SE 00:13:13 10° ENE
STARLINK-1257 3.2 00:10:14 63° ENE 00:10:14 63° ENE 00:12:56 10° ENE
STARLINK-1256 3.1 00:11:11 64° ENE 00:11:11 64° ENE 00:13:54 10° ENE
STARLINK-58 3.5 00:11:42 47° E 00:11:42 47° E 00:14:12 10° ENE
STARLINK-1213 3.1 00:12:02 66° ENE 00:12:02 66° ENE 00:14:47 10° ENE
STARLINK-1263 3.0 00:12:53 68° NE 00:12:53 68° NE 00:15:40 10° ENE
STARLINK-1259 3.0 00:13:47 70° NE 00:13:47 70° NE 00:16:37 10° ENE
Cosmos 2084 Rocket 3.4 00:09:18 10° NW 00:13:45 70° SW 00:14:58 46° SSE
STARLINK-1265 3.0 00:14:10 72° NE 00:14:10 72° NE 00:17:02 10° ENE
STARLINK-1285 3.0 00:14:38 72° NE 00:14:38 72° NE 00:17:29 10° ENE
SL-16 R/B 3.2 00:10:23 13° SE 00:15:37 51° ENE 00:21:35 10° N
STARLINK-1296 2.9 00:16:22 75° NNE 00:16:22 75° NNE 00:19:17 10° ENE
Cosmos 1758 Rocket 3.7 00:15:28 47° SW 00:16:33 65° W 00:20:59 10° N
Cosmos 2298 Rocket 4.2 00:11:17 10° NNW 00:16:37 71° ENE 00:19:50 24° SSE
STARLINK-1260 2.9 00:17:14 76° NNE 00:17:14 76° NNE 00:20:12 10° ENE
STARLINK-1318 2.9 00:18:06 77° NNE 00:18:06 77° NNE 00:21:06 10° ENE
STARLINK-75 3.3 00:18:02 56° WNW 00:18:25 62° NNW 00:21:38 10° NE
STARLINK-1275 2.9 00:18:59 77° N 00:18:59 77° N 00:22:01 10° ENE
STARLINK-48 3.7 00:19:05 48° SE 00:19:07 48° SE 00:22:53 10° ENE
STARLINK-1309 2.9 00:19:50 77° N 00:19:50 77° N 00:22:53 10° ENE
STARLINK-1282 2.9 00:20:42 76° NNW 00:20:42 76° NNW 00:23:47 10° ENE
IRAS Rocket 4.2 00:18:06 32° SSE 00:20:49 86° WSW 00:26:24 10° NNW
STARLINK-1283 3.5 00:20:02 45° WSW 00:21:15 85° NNW 00:25:24 10° ENE
STARLINK-1313 3.0 00:21:38 66° NW 00:21:46 68° NNW 00:24:54 10° NE
STARLINK-80 3.3 00:21:07 54° WSW 00:21:56 85° NNW 00:25:45 10° ENE
STARLINK-1279 3.0 00:22:33 65° NW 00:22:43 66° NNW 00:25:49 10° NE
STARLINK-1298 2.9 00:23:16 73° NW 00:23:19 73° NNW 00:26:26 10° NE
STARLINK-1293 2.9 00:24:10 71° NW 00:24:15 72° NNW 00:27:23 10° NE
SL-16 R/B 3.4 00:22:44 22° SSE 00:25:22 32° ESE 00:30:20 10° NE
Cosmos 2208 Rocket 4.1 00:23:37 36° SW 00:25:47 69° WNW 00:31:10 10° NNE
STARLINK-1255 2.9 00:25:54 68° WNW 00:26:04 70° NNW 00:29:11 10° NE
STARLINK-22 3.2 00:26:16 58° WNW 00:26:40 66° NNW 00:29:52 10° NE
STARLINK-1297 3.2 00:26:32 56° WSW 00:27:13 82° NNW 00:30:51 10° ENE
STARLINK-1311 3.2 00:28:27 53° NW 00:28:39 55° NNW 00:31:35 10° NE
Cosmos 2285 Rocket 4.3 00:23:09 10° NNW 00:29:16 52° WSW 00:31:55 32° SSW
MOZ.5/SAFIR/RUBIN 5/SL-8 3.9 00:29:16 29° SSE 00:31:38 72° ENE 00:36:17 10° N
CZ-2D R/B 2.8 00:27:20 10° NNE 00:32:21 46° E 00:35:02 25° SSE
USA 215 3.3 00:28:06 17° SSE 00:33:07 54° SW 00:39:32 10° WNW
STARLINK-1281 4.5 00:33:11 33° SE 00:33:28 33° SE 00:37:13 10° ENE
Cosmos-2242 3.3 00:29:23 10° NNW 00:33:29 49° W 00:34:24 41° SW
Meteor 2-10 Rocket 4.3 00:29:18 10° NNW 00:33:54 35° W 00:35:16 30° WSW
Cosmos 1953 Rocket 3.5 00:33:32 43° SSW 00:34:54 75° W 00:39:20 10° N
Cosmos 2221 3.7 00:32:13 10° N 00:36:20 38° ENE 00:39:28 16° SE
STARLINK-42 3.9 00:36:26 30° WNW 00:37:29 43° NNW 00:40:30 10° NE
BREEZE-M R/B 3.8 00:32:11 10° W 00:37:43 49° N 00:40:46 10° ENE
STARLINK-1310 4.3 00:37:57 35° SSE 00:38:26 36° SE 00:42:15 10° ENE
STARLINK-1029 2.7 00:39:04 80° SSW 00:39:13 85° SSE 00:42:23 10° ENE
STARLINK-34 2.9 00:40:02 63° W 00:40:21 72° NNW 00:43:26 10° NE
CZ-4C R/B 3.7 00:38:34 28° SSE 00:40:49 75° ENE 00:45:16 10° N
GP-B 3.1 00:36:44 10° N 00:41:11 85° E 00:42:58 36° S
STARLINK-41 3.9 00:40:11 29° WNW 00:41:13 42° NNW 00:44:09 10° NE
STARLINK-60 3.2 00:38:03 10° NW 00:41:13 66° NNE 00:44:23 10° ESE
Cosmos 1315 Rocket 3.8 00:39:24 10° N 00:43:09 41° ENE 00:45:45 18° SE
STARLINK-1272 3.6 00:42:02 34° W 00:43:19 61° NNW 00:46:50 10° NE
Cosmos 1842 Rocket 4.1 00:38:56 10° N 00:43:20 55° ENE 00:46:04 22° SSE
STARLINK-1319 4.2 00:42:43 36° SSE 00:43:22 39° SE 00:47:14 10° ENE
Cosmos 540 Rocket 4.0 00:41:07 28° WSW 00:43:29 49° WNW 00:48:28 10° NNE
STARLINK-62 3.0 00:43:45 55° W 00:44:12 67° NNW 00:47:16 10° NE
Cosmos 2360 Rocket 4.0 00:43:58 11° SE 00:47:46 21° E 00:51:54 10° NE
STARLINK-1277 4.1 00:47:31 38° S 00:48:19 43° SE 00:52:15 10° ENE
STARLINK-1307 3.7 00:46:48 29° W 00:48:28 60° NNW 00:52:10 10° NE
Helios 1B rocket 4.2 00:45:33 10° NNW 00:48:46 22° WNW 00:50:24 18° W
STARLINK-1290 3.8 00:50:11 27° W 00:52:00 58° NNW 00:55:41 10° NE
STARLINK-1276 4.0 00:52:19 38° S 00:53:18 46° SE 00:57:17 10° ENE
Cosmos 2058 4.3 00:50:48 17° SE 00:53:21 33° E 00:57:08 10° NNE
Shenzhou-11 Module 4.1 00:56:40 13° ESE 00:56:40 13° ESE 00:57:05 10° ESE
Cosmos 1980 Rocket 2.7 00:51:50 24° WSW 00:54:59 50° WNW 01:00:31 10° NNE
Cosmos 2074 Rocket 4.0 00:51:22 27° S 00:55:03 88° W 01:01:23 10° N
STARLINK-1305 3.9 00:57:04 37° S 00:58:14 50° SE 01:02:15 10° ENE
STARLINK-1306 3.9 00:57:24 37° SSW 00:58:41 54° SE 01:02:48 10° ENE
STARLINK-1317 4.1 00:56:33 20° W 00:59:01 52° NNW 01:02:50 10° NE
Cosmos 1455 4.2 00:57:42 10° NW 00:59:54 15° W 01:00:05 15° W
CZ-4B R/B 3.9 00:56:02 10° NNE 01:01:15 60° ESE 01:04:34 23° S
STARLINK-1274 4.1 01:00:55 20° W 01:03:03 47° NNW 01:06:29 10° NE
STARLINK-1262 3.8 01:01:53 36° SSW 01:03:14 55° SE 01:07:17 10° ENE
STARLINK-1291 4.2 01:04:15 18° W 01:06:45 47° NNW 01:10:23 10° NE
Meteor 1-11 4.5 01:03:54 27° SW 01:06:50 55° WNW 01:12:21 10° N
STARLINK-1300 3.7 01:06:40 35° SSW 01:08:12 60° SE 01:12:17 10° ENE
STARLINK-1264 4.3 01:07:26 17° W 01:10:04 45° NNW 01:13:42 10° NE
ADEOS II 3.1 01:05:28 10° NNE 01:10:25 40° E 01:14:40 13° SSE
Cosmos 2263 Rocket 2.2 01:06:06 10° NNW 01:11:38 64° WSW 01:15:58 17° S
STARLINK-1295 3.6 01:11:26 33° SW 01:13:09 65° SE 01:17:16 10° ENE
NOSS 2-1 (C) 2.8 01:12:04 38° SSW 01:13:15 85° SE 01:16:51 10° NE
STARLINK-1267 4.3 01:10:39 15° W 01:13:27 44° NNW 01:17:03 10° NE
IRS-1D 4.1 01:08:34 10° NNE 01:13:44 54° E 01:17:31 18° S
STARLINK-29 3.4 01:10:49 10° NW 01:14:00 63° NNE 01:17:09 10° ESE
UNK 3.8 01:11:40 26° S 01:14:05 59° W 01:18:38 10° NNW
AQUA 3.9 01:10:40 10° NNE 01:15:28 79° ESE 01:18:24 23° S
SL-4 R/B 2.2 01:10:50 10° WNW 01:15:39 71° SSW 01:20:17 10° SE
STARLINK-64 3.3 01:14:12 29° WSW 01:15:52 76° NNW 01:19:29 10° ENE
USA 229 DEB 3.8 01:10:14 10° NW 01:17:30 72° WSW 01:25:05 10° SSE
USA 229 3.8 01:10:21 10° NW 01:17:36 72° WSW 01:25:13 10° SSE
STARLINK-1287 3.6 01:16:13 30° SW 01:18:07 70° SE 01:22:15 10° ENE
NOSS 2-1 (D) 2.9 01:16:50 35° SW 01:18:09 84° NW 01:21:46 10° NE
NOSS 3-1 (C) 4.1 01:10:52 10° NW 01:18:24 67° WSW 01:27:00 10° SSE
NPP 3.6 01:13:59 10° NNE 01:19:25 82° WNW 01:22:54 23° SSW
ARIANE 5 R/B 4.0 01:15:45 10° NE 01:20:06 29° E 01:24:24 10° SSE
STARLINK-1207 4.5 01:17:09 13° W 01:20:15 41° NNW 01:23:50 10° NE
Cosmos 2184 Rocket 4.1 01:16:26 23° SSW 01:20:16 60° WNW 01:26:23 10° N
CZ-4C R/B 4.2 01:18:35 10° W 01:23:01 24° NNW 01:28:09 10° NNE
BREEZE-M DEB (TANK) 2.2 01:23:14 30° W 01:24:00 56° NNW 01:26:56 10° ENE
Cosmos 1892 2.9 01:21:52 23° S 01:24:06 66° E 01:27:52 10° NNE
STARLINK-1299 3.6 01:24:05 24° WSW 01:26:36 90° ENE 01:30:52 10° ENE
NOSS 3-1 (A) 4.1 01:19:01 10° NW 01:26:36 84° SW 01:35:19 10° SSE
STARLINK-1302 3.5 01:25:46 26° SW 01:28:03 81° SSE 01:32:13 10° ENE
Cosmos 1610 Rocket 4.5 01:24:10 20° SSW 01:28:30 76° W 01:34:45 10° N
BREEZE-M DEB (TANK) 2.5 01:26:32 10° WNW 01:28:48 40° N 01:31:23 10° E
Cosmos 1869 3.3 01:27:02 10° NNW 01:30:51 59° W 01:33:00 24° SSW
STARLINK-1273 3.5 01:30:32 23° SW 01:33:01 87° SSE 01:37:11 10° ENE
Cosmos 2322 Rocket 2.2 01:29:42 21° SSW 01:33:33 89° ESE 01:39:12 10° NNE
In-Cosmos 22 Rocket 4.2 01:31:02 18° S 01:35:14 89° W 01:40:44 10° N
STARLINK-1288 3.6 01:35:19 21° WSW 01:38:00 87° NNW 01:42:10 10° ENE
STARLINK-61 3.4 01:35:51 24° SW 01:38:05 75° SE 01:42:00 10° ENE
STARLINK-1348 4.5 01:35:25 10° NW 01:38:23 37° NNE 01:41:19 10° E
STARLINK-1330 4.5 01:35:45 10° NW 01:38:42 37° NNE 01:41:38 10° E
STARLINK-1363 4.5 01:36:05 10° NW 01:39:02 38° NNE 01:41:59 10° E
STARLINK-1337 4.5 01:36:28 10° NW 01:39:25 38° NNE 01:42:21 10° E
STARLINK-1342 4.5 01:36:46 10° NW 01:39:43 38° NNE 01:42:41 10° E
STARLINK-1364 4.5 01:37:07 10° NW 01:40:04 38° NNE 01:43:01 10° E
STARLINK-1376 4.4 01:37:27 10° NW 01:40:25 38° NNE 01:43:21 10° E
STARLINK-81 4.4 01:38:56 21° S 01:40:36 31° SE 01:43:51 10° ENE
STARLINK-1360 4.4 01:37:46 10° NW 01:40:45 38° NNE 01:43:43 10° E
STARLINK-1361 4.4 01:38:07 10° NW 01:41:06 39° NNE 01:44:03 10° E
Resurs 1-4 Rocket 2.7 01:36:12 10° N 01:41:15 46° WNW 01:44:54 18° SW
STARLINK-1367 4.4 01:38:23 10° NW 01:41:23 39° NNE 01:44:24 10° E
STARLINK-1366 4.4 01:38:46 10° NW 01:41:45 39° NNE 01:44:42 10° E
STARLINK-54 4.2 01:40:39 22° S 01:42:22 35° SE 01:45:42 10° ENE
Cosmos 1076 Rocket 3.5 01:39:51 20° SSW 01:42:52 78° W 01:47:16 10° N
STARLINK-1308 3.6 01:40:08 19° WSW 01:43:01 81° NNW 01:47:11 10° ENE
STARLINK-77 4.3 01:42:03 21° S 01:43:50 33° SE 01:47:08 10° ENE
Cosmos 2151 3.9 01:40:34 10° SSE 01:44:40 46° E 01:48:48 10° NNE
Cosmos 1125 Rocket 4.2 01:40:45 10° NW 01:45:28 35° WSW 01:48:54 17° SSW
H-2A R/B 3.8 01:42:40 10° SE 01:46:43 36° ENE 01:50:51 10° N
STARLINK-79 4.2 01:46:45 20° SSW 01:48:42 36° SE 01:52:04 10° ENE
STARLINK-52 2.8 01:46:08 10° WNW 01:49:21 76° SSW 01:52:32 10° SE
Cosmos 962 Rocket 4.5 01:44:45 14° S 01:50:11 86° W 01:56:27 10° N
STARLINK-78 4.1 01:48:20 20° SSW 01:50:20 38° SE 01:53:44 10° ENE
STARLINK-57 4.0 01:49:58 20° SSW 01:52:01 41° SE 01:55:27 10° ENE
Cosmos 1408 2.6 01:49:31 17° S 01:52:19 86° E 01:56:01 10° N
STARLINK-1304 3.8 01:49:41 16° WSW 01:52:58 72° NNW 01:57:07 10° ENE
STARLINK-49 4.0 01:51:26 20° SSW 01:53:32 40° SE 01:56:57 10° ENE
Cosmos 2154 Rocket 4.3 01:49:51 17° SSW 01:54:38 51° WNW 02:00:42 10° N
STARLINK-27 4.0 01:53:02 19° SSW 01:55:12 41° SE 01:58:39 10° ENE
GEOS 3 Rocket 3.7 01:51:01 10° SSE 01:56:04 54° WSW 02:01:16 10° NW
STARLINK-74 3.9 01:54:35 19° SSW 01:56:49 43° SE 02:00:16 10° ENE
STARLINK-39 3.9 01:56:10 19° SSW 01:58:26 44° SE 02:01:56 10° ENE
Cosmos 1825 2.4 01:55:27 12° S 01:58:55 67° E 02:02:40 10° NNE
STARLINK-1278 4.1 01:55:21 12° WSW 01:59:11 61° NNW 02:03:25 10° NE
Cosmos 2237 4.3 01:54:31 15° SSW 01:59:23 80° ESE 02:05:09 10° NNE
SL-16 R/B 3.4 01:55:29 16° SW 01:59:28 29° W 02:04:48 10° NW
STARLINK-31 3.8 01:57:45 18° SSW 02:00:05 46° SE 02:03:35 10° ENE
STARLINK-1007 4.5 01:57:32 16° SSW 02:00:23 38° SE 02:04:14 10° ENE
STARLINK-1280 4.1 01:57:08 12° WSW 02:01:01 60° NNW 02:05:15 10° NE
SL-08 R/B 3.2 01:56:32 10° SSE 02:01:10 84° WSW 02:05:47 10° NNW
STARLINK-69 3.6 01:59:20 18° SSW 02:01:44 51° SE 02:05:14 10° ENE
STARLINK-21 3.7 02:00:55 18° SSW 02:03:23 49° SE 02:06:53 10° ENE
IRS-P3 4.1 01:59:28 10° NNE 02:04:49 79° WNW 02:09:52 11° SSW
STARLINK-45 3.5 02:02:35 17° SW 02:05:08 56° SE 02:08:42 10° ENE
STARLINK-1048 4.4 02:02:18 16° SSW 02:05:19 41° SE 02:09:14 10° ENE
Cosmos 1844 Rocket 2.8 02:00:36 10° NNW 02:06:14 80° ENE 02:11:48 10° SSE
NOSS 2-1 (E) 4.3 02:04:58 12° WSW 02:07:45 32° NW 02:11:12 10° NNE
STARLINK-76 3.6 02:05:36 17° SW 02:08:14 55° SE 02:11:48 10° ENE
STARLINK-70 3.5 02:05:59 16° SW 02:08:42 58° SE 02:12:19 10° ENE
SL-16 R/B 2.9 02:04:36 13° SW 02:09:19 44° NW 02:14:45 10° NNE
STARLINK-1286 4.1 02:05:37 10° WSW 02:09:40 57° NNW 02:13:48 10° NE
STARLINK-23 3.5 02:07:11 16° SW 02:09:52 57° SE 02:13:27 10° ENE
STARLINK-1049 4.2 02:07:06 15° SSW 02:10:17 45° SE 02:14:15 10° ENE
STARLINK-1339 4.4 02:06:30 10° NW 02:10:25 53° NNE 02:14:18 10° ESE
STARLINK-32 3.5 02:08:37 16° SW 02:11:19 58° SE 02:14:52 10° ENE
CZ-2D R/B 3.4 02:07:53 10° N 02:12:10 26° WNW 02:16:21 10° WSW
STARLINK-1281 4.1 02:08:50 10° WSW 02:12:55 56° NNW 02:17:01 10° NE
STARLINK-40 3.5 02:10:18 15° SW 02:13:07 60° SE 02:16:42 10° ENE
Cosmos 2221 4.0 02:10:22 10° NW 02:13:37 21° W 02:16:16 13° SW
COSMOS 2428 4.1 02:08:49 10° SSE 02:13:50 34° ESE 02:18:52 10° NE
CZ-4C R/B 4.0 02:11:09 10° SSE 02:14:41 52° ENE 02:18:14 10° N
STARLINK-44 3.4 02:11:49 15° SW 02:14:41 62° SE 02:18:17 10° ENE
STARLINK-1377 4.3 02:11:02 10° NW 02:14:59 56° NNE 02:18:57 10° ESE
STARLINK-1051 4.1 02:11:52 14° SSW 02:15:13 49° SE 02:19:14 10° ENE
Cosmos 773 Rocket 4.0 02:11:02 11° SSW 02:16:04 88° WNW 02:21:24 10° NNE
STARLINK-37 3.3 02:13:33 14° SW 02:16:31 69° SE 02:20:07 10° ENE
STARLINK-60 4.4 02:14:44 10° W 02:17:00 18° SW 02:19:15 10° S
STARLINK-1310 4.2 02:13:51 10° WSW 02:17:55 53° NNW 02:22:00 10° NE
STARLINK-36 3.4 02:14:56 14° SW 02:17:56 66° SE 02:21:33 10° ENE
FALCON 9 DEB 3.0 02:15:13 10° WNW 02:18:40 70° SW 02:22:06 10° SE
STARLINK-1353 4.2 02:15:23 10° NW 02:19:21 59° NNE 02:23:19 10° ESE
STARLINK-63 3.3 02:18:10 13° SW 02:21:18 74° SSE 02:24:55 10° ENE
STARLINK-35 3.3 02:19:32 13° SW 02:22:39 72° SE 02:26:14 10° ENE
STARLINK-1319 4.3 02:18:51 10° W 02:22:54 51° NNW 02:26:57 10° NE
STARLINK-1375 4.1 02:19:45 10° NW 02:23:44 63° NNE 02:27:43 10° ESE
STARLINK-51 3.3 02:21:14 12° SW 02:24:27 75° SE 02:28:04 10° ENE
Cosmos 2366 rocket 4.1 02:18:46 10° S 02:25:01 87° W 02:31:23 10° N
STARLINK-1028 3.9 02:21:25 12° SW 02:25:09 58° SE 02:29:14 10° ENE
STARLINK-30 3.3 02:22:49 12° SW 02:26:07 77° SSE 02:29:46 10° ENE
STARLINK-72 3.2 02:24:13 12° SW 02:27:31 79° SSE 02:31:06 10° ENE
STARLINK-1277 4.4 02:23:53 10° W 02:27:54 48° NNW 02:31:56 10° NE
Cosmos 2278 Rocket 4.4 02:22:58 10° N 02:27:58 31° NE 02:32:57 10° ESE
STARLINK-1350 4.0 02:24:05 10° NW 02:28:06 67° NNE 02:32:05 10° ESE
Shenzhou-11 Module 2.1 02:26:48 10° WSW 02:29:02 34° S 02:31:18 10° ESE
STARLINK-1021 3.8 02:26:14 11° SW 02:30:08 63° SE 02:34:15 10° ENE
Cosmos 2058 4.4 02:27:00 10° SW 02:30:19 23° WNW 02:33:43 10° NNW
STARLINK-59 3.2 02:27:25 11° SW 02:30:52 87° SSE 02:34:27 10° ENE
Cosmos 1933 3.6 02:27:04 10° N 02:31:07 71° E 02:35:07 10° SSE
Cosmos 2360 Rocket 2.4 02:25:44 10° SW 02:31:15 63° WNW 02:36:52 10° NNE
STARLINK-1352 3.9 02:28:16 10° WNW 02:32:16 70° NNE 02:36:16 10° ESE
STARLINK-1010 3.8 02:28:17 11° SW 02:32:23 69° SE 02:36:37 10° ENE
STARLINK-56 3.2 02:29:04 10° SW 02:32:37 86° SSE 02:36:17 10° ENE
STARLINK-73 3.3 02:30:38 10° WSW 02:34:15 88° SSE 02:37:54 10° ENE
Cosmos 1328 Rocket 3.6 02:30:15 10° N 02:34:40 86° E 02:39:01 10° S
STARLINK-1019 3.8 02:30:59 10° SW 02:35:04 68° SE 02:39:12 10° ENE
STARLINK-38 3.3 02:32:15 10° WSW 02:35:53 89° NW 02:39:32 10° ENE
STARLINK-1368 3.8 02:32:57 10° WNW 02:36:59 75° NNE 02:41:00 10° ESE
STARLINK-65 3.3 02:33:53 10° WSW 02:37:31 87° NNW 02:41:10 10° ENE
STARLINK-68 3.3 02:34:34 10° WSW 02:38:13 82° NNW 02:41:53 10° ENE
STARLINK-53 3.3 02:35:36 10° WSW 02:39:14 82° NNW 02:42:53 10° ENE
STARLINK-1012 3.7 02:35:56 10° SW 02:40:03 74° SSE 02:44:12 10° ENE
STARLINK-1369 3.7 02:37:23 10° WNW 02:41:26 80° NNE 02:45:27 10° ESE
STARLINK-50 3.4 02:37:42 10° WSW 02:41:31 87° NNW 02:45:20 10° ENE
Cosmos 2333 Rocket 2.5 02:39:06 10° SSW 02:44:42 69° ESE 02:50:21 10° NNE
STARLINK-1372 3.6 02:41:33 10° WNW 02:45:33 84° NNE 02:49:31 10° ESE
Meteor 1-28 Rocket 3.9 02:42:19 10° SSW 02:45:46 35° W 02:49:15 10° NNW
STARLINK-71 3.6 02:42:14 10° WSW 02:46:17 80° NNW 02:50:19 10° ENE
Landsat 5 3.6 02:42:28 10° S 02:46:58 74° WSW 02:51:26 10° NNW
Cosmos 2219 Rocket 2.5 02:43:17 10° SSW 02:48:48 69° ESE 02:54:22 10° NNE
Cosmos 1727 Rocket 4.0 02:43:40 10° NNW 02:49:50 75° W 02:55:59 10° S
ADEOS II 3.2 02:45:26 10° N 02:49:58 30° WNW 02:54:30 10° SW
STARLINK-1026 3.7 02:45:51 10° SW 02:50:00 85° SSE 02:54:10 10° ENE
Cosmos 2322 3.8 02:44:30 10° SSW 02:50:13 79° WNW 02:55:59 10° NNE
STARLINK-1378 3.6 02:46:16 10° WNW 02:50:19 90° NE 02:54:21 10° ESE
